Friday, October 19, 2018, 7:18 AM GMT
Back to Local

CWST, La Pocatiere

Location: , , Canada Lat: 47.35
Local Time: 7:18 AM GMT ( 7:18 GMT) Lon: -70.033
Time Zone: GMT Elev: 101 ft

Show me the last for .
Show Coded

Time T Td Feel RH Dir Speed Gust Alt SLP Vis Weather Sky Remarks
2018-10-19 06:00 32 18 24 55 300° 9 - - 30.08 0 None
2018-10-19 05:00 32 19 25 57 290° 8 - - 30.09 0 None
2018-10-19 04:00 31 18 24 57 290° 8 - - 30.09 0 None
2018-10-19 03:00 33 17 24 52 290° 12 - - 30.11 0 None
2018-10-19 02:00 33 16 22 48 290° 13 18 - 30.10 0 Peak wind: 19 mph (17 kts) from 310° at 34 min
2018-10-19 01:00 33 16 22 48 300° 13 21 - 30.10 0 Peak wind: 20 mph (18 kts) from 320° at 59 min
2018-10-19 00:00 34 15 23 46 280° 10 17 - 30.10 0 Peak wind: 21 mph (19 kts) from 280° at 16 min
2018-10-18 23:00 35 15 23 43 300° 14 22 - 30.09 0 Peak wind: 21 mph (19 kts) from 300° at 36 min
2018-10-18 22:00 35 18 24 49 320° 10 18 - 30.06 0 Peak wind: 26 mph (23 kts) from 310° at 09 min
2018-10-18 21:00 36 18 26 47 300° 13 18 - 30.04 0 Peak wind: 21 mph (19 kts) from 280° at 32 min
2018-10-18 20:00 37 18 27 46 310° 12 18 - 30.02 0 Peak wind: 23 mph (20 kts) from 280° at 18 min
2018-10-18 19:00 38 20 27 49 290° 13 20 - 30.01 0 Peak wind: 25 mph (22 kts) from 290° at 26 min
2018-10-18 18:00 37 21 24 52 310° 17 33 - 30.00 0 Peak wind: 33 mph (29 kts) from 300° at 51 min
2018-10-18 17:00 36 23 25 57 300° 14 22 - 29.99 0 Peak wind: 25 mph (22 kts) from 310° at 04 min
1-hr Precip Total: 0.01"
2018-10-18 16:00 38 25 26 58 300° 16 26 - 29.98 0 Peak wind: 27 mph (24 kts) from 320° at 26 min
2018-10-18 15:00 36 26 28 67 300° 10 - - 29.97 0 Peak wind: 29 mph (26 kts) from 310° at 43 min
2018-10-18 14:00 35 23 25 59 300° 10 17 - 29.95 0 Peak wind: 27 mph (24 kts) from 280° at 18 min
2018-10-18 13:00 35 23 24 60 290° 15 22 - 29.94 0 Peak wind: 26 mph (23 kts) from 280° at 27 min
2018-10-18 12:00 34 22 22 60 290° 15 23 - 29.91 0 Peak wind: 28 mph (25 kts) from 280° at 39 min
2018-10-18 11:00 35 22 23 60 290° 15 22 - 29.88 0 Peak wind: 24 mph (21 kts) from 260° at 30 min
2018-10-18 10:00 35 26 23 67 290° 16 25 - 29.84 0 Peak wind: 26 mph (23 kts) from 290° at 15 min
2018-10-18 09:00 36 23 24 60 290° 14 22 - 29.80 0 Peak wind: 24 mph (21 kts) from 300° at 46 min
1-hr Precip Total: 0.01"
2018-10-18 08:00 36 23 25 60 300° 13 21 - 29.78 0 Peak wind: 20 mph (18 kts) from 300° at 59 min

Support USWX by starting your Amazon purchase here.